Flag for Germany Weather past 2 weeks in Meiningen, Thuringia, Germany

Now
57 °F

Passing clouds.


Feels Like: 57 °F
Forecast: 48 / 66 °F
Wind: 5 mph from Northwest

Location: Meiningen

Current Time: Jul 30, 2015 at 12:51:48 AM

Latest Report: Jul 29, 2015 at 10:00 PM


Visibility: 44 mi

Pressure: 29.88 "Hg

Humidity: 54%

Dew point: 41 °F

Location of MeiningenLocation

Historic Weather in Meiningen — Graph

°F

Meiningen temperature yesterday

Maximum temperature yesterday: 63 °F (at 6:00 PM)
Minimum temperature yesterday: 52 °F (at 8:00 AM)
Average temperature yesterday: 58 °F

Past Weeks' High & Low Weather Summary

 TemperatureHumidityPressure
High91 °F (Jul 17, 6:00 PM)100% (Jul 19, 4:00 AM)30.13 "Hg (Jul 19, 4:00 AM)
Low50 °F (Jul 26, 4:00 AM)22% (Jul 17, 6:00 PM)29.62 "Hg (Jul 27, 12:00 PM)
Average67 °F66%29.90 "Hg
* Reported Jul 14 10:00 PM — Jul 29 10:00 PM, Meiningen, Weather by CustomWeather, © 2015

Note: Actual official high and low records may vary slightly from our data, if they occured in-between our weather recording intervals... More about our weather records

Advertising

Meiningen weather history for previous 24 hours

 ConditionsComfort  
Time TempWeatherWind HumidityBarometerVisibility
10:00 PM
Wed, Jul 29
57 °FPassing clouds.5 mph54%29.88 "Hg43 mi
9:00 PM58 °FSunny.5 mph54%29.85 "Hg43 mi
8:00 PM62 °FPartly sunny.7 mph41%29.81 "Hg43 mi
7:00 PM62 °FScattered clouds.6 mph43%29.79 "Hg40 mi
6:00 PM63 °FPartly sunny.6 mph48%29.78 "Hg19 mi
5:00 PM62 °FPartly sunny.7 mph50%29.77 "Hg31 mi
4:00 PM62 °FPartly sunny.7 mph56%29.76 "Hg25 mi
3:00 PM61 °FPassing clouds.8 mph53%29.76 "Hg11 mi
2:00 PM60 °FOvercast.9 mph58%29.76 "Hg25 mi
1:00 PM58 °FOvercast.6 mph62%29.78 "Hg22 mi
12:00 PM58 °FOvercast.6 mph57%29.78 "Hg25 mi
10:00 AM56 °FOvercast.6 mph68%29.81 "Hg40 mi
9:00 AM55 °FScattered clouds.5 mph75%29.81 "Hg31 mi
8:00 AM52 °FLow clouds.3 mph89%29.83 "Hg22 mi
7:00 AM53 °FOvercast.3 mph80%29.83 "Hg31 mi
4:00 AM55 °FOvercast.2 mph68%29.82 "Hg43 mi
3:00 AM56 °FOvercast.3 mph64%29.82 "Hg43 mi
2:00 AM57 °FOvercast.3 mph61%29.82 "Hg43 mi
1:00 AM58 °FOvercast.3 mph57%29.82 "Hg43 mi
Weather by CustomWeather, © 2015

See weather overviewHow to use our weather pages